owner,sensor,date,latitude,longitude,relative_humidity,qcFlag 
COMPS,ioos:station:USF.COMPS:C10:1,2014-11-01T00:05:00Z,27.1690,-82.9260,100.08,1111122 
COMPS,ioos:station:USF.COMPS:C10:1,2014-11-01T00:35:00Z,27.1690,-82.9260,100.08,1111122 
COMPS,ioos:station:USF.COMPS:C10:1,2014-11-01T01:05:00Z,27.1690,-82.9260,100.07,1111122 
COMPS,ioos:station:USF.COMPS:C10:1,2014-11-01T01:35:00Z,27.1690,-82.9260,100.07,1111122 
COMPS,ioos:station:USF.COMPS:C10:1,2014-11-01T02:05:00Z,27.1690,-82.9260,100.08,1111122 
COMPS,ioos:station:USF.COMPS:C10:1,2014-11-01T02:35:00Z,27.1690,-82.9260,100.09,1111122 
COMPS,ioos:station:USF.COMPS:C10:1,2014-11-01T04:05:00Z,27.1690,-82.9260,99.95,1111122 
COMPS,ioos:station:USF.COMPS:C10:1,2014-11-01T04:35:00Z,27.1690,-82.9260,99.76,1111122 
COMPS,ioos:station:USF.COMPS:C10:1,2014-11-01T05:05:00Z,27.1690,-82.9260,99.19,1111122 
COMPS,ioos:station:USF.COMPS:C10:1,2014-11-01T05:35:00Z,27.1690,-82.9260,99.7,1111122 
COMPS,ioos:station:USF.COMPS:C10:1,2014-11-01T06:05:00Z,27.1690,-82.9260,99.52,1111122 
COMPS,ioos:station:USF.COMPS:C10:1,2014-11-01T06:35:00Z,27.1690,-82.9260,99.79,1111122 
COMPS,ioos:station:USF.COMPS:C10:1,2014-11-01T07:05:00Z,27.1690,-82.9260,99.22,1111122 
COMPS,ioos:station:USF.COMPS:C10:1,2014-11-01T07:35:00Z,27.1690,-82.9260,96.57,1111122 
COMPS,ioos:station:USF.COMPS:C10:1,2014-11-01T08:05:00Z,27.1690,-82.9260,97.35,1111122 
COMPS,ioos:station:USF.COMPS:C10:1,2014-11-01T08:35:00Z,27.1690,-82.9260,98.49,1111122 
COMPS,ioos:station:USF.COMPS:C10:1,2014-11-01T09:05:00Z,27.1690,-82.9260,100.07,1111122 
COMPS,ioos:station:USF.COMPS:C10:1,2014-11-01T09:35:00Z,27.1690,-82.9260,100.08,1111122 
COMPS,ioos:station:USF.COMPS:C10:1,2014-11-01T10:05:00Z,27.1690,-82.9260,100.07,1111122 
COMPS,ioos:station:USF.COMPS:C10:1,2014-11-01T10:35:00Z,27.1690,-82.9260,100.09,1111122 
COMPS,ioos:station:USF.COMPS:C10:1,2014-11-01T11:05:00Z,27.1690,-82.9260,100.09,1111122 
COMPS,ioos:station:USF.COMPS:C10:1,2014-11-01T11:35:00Z,27.1690,-82.9260,100.09,1111122 
COMPS,ioos:station:USF.COMPS:C10:1,2014-11-01T12:05:00Z,27.1690,-82.9260,100.07,1111122 
COMPS,ioos:station:USF.COMPS:C10:1,2014-11-01T12:35:00Z,27.1690,-82.9260,100.08,1111122 
COMPS,ioos:station:USF.COMPS:C10:1,2014-11-01T13:05:00Z,27.1690,-82.9260,100.08,1111122 
COMPS,ioos:station:USF.COMPS:C10:1,2014-11-01T13:35:00Z,27.1690,-82.9260,100.07,1111122 
COMPS,ioos:station:USF.COMPS:C10:1,2014-11-01T14:05:00Z,27.1690,-82.9260,100.08,1111122 
COMPS,ioos:station:USF.COMPS:C10:1,2014-11-01T14:35:00Z,27.1690,-82.9260,100.06,1111122 
COMPS,ioos:station:USF.COMPS:C10:1,2014-11-01T16:05:00Z,27.1690,-82.9260,100.07,1111122 
COMPS,ioos:station:USF.COMPS:C10:1,2014-11-01T16:35:00Z,27.1690,-82.9260,99.25,1111122 
COMPS,ioos:station:USF.COMPS:C10:1,2014-11-01T17:05:00Z,27.1690,-82.9260,99.53,1111122 
COMPS,ioos:station:USF.COMPS:C10:1,2014-11-01T17:35:00Z,27.1690,-82.9260,99.22,1111122 
COMPS,ioos:station:USF.COMPS:C10:1,2014-11-01T18:05:00Z,27.1690,-82.9260,98.53,1111122 
COMPS,ioos:station:USF.COMPS:C10:1,2014-11-01T18:35:00Z,27.1690,-82.9260,98.35,1111122 
COMPS,ioos:station:USF.COMPS:C10:1,2014-11-01T19:05:00Z,27.1690,-82.9260,96.69,1111122 
COMPS,ioos:station:USF.COMPS:C10:1,2014-11-01T19:35:00Z,27.1690,-82.9260,98.09,1111122 
COMPS,ioos:station:USF.COMPS:C10:1,2014-11-01T20:05:00Z,27.1690,-82.9260,97.87,1111122 
COMPS,ioos:station:USF.COMPS:C10:1,2014-11-01T20:35:00Z,27.1690,-82.9260,96.8,1111122 
COMPS,ioos:station:USF.COMPS:C10:1,2014-11-01T21:05:00Z,27.1690,-82.9260,96.24,1111122 
COMPS,ioos:station:USF.COMPS:C10:1,2014-11-01T21:35:00Z,27.1690,-82.9260,95.49,1111122 
COMPS,ioos:station:USF.COMPS:C10:1,2014-11-01T23:05:00Z,27.1690,-82.9260,92.71,1111122 
COMPS,ioos:station:USF.COMPS:C10:1,2014-11-01T23:35:00Z,27.1690,-82.9260,98.35,1111122 
COMPS,ioos:station:USF.COMPS:C10:1,2014-11-02T00:05:00Z,27.1690,-82.9260,95.42,1111122 
COMPS,ioos:station:USF.COMPS:C10:1,2014-11-02T00:35:00Z,27.1690,-82.9260,94.6,1111122 
COMPS,ioos:station:USF.COMPS:C10:1,2014-11-02T02:05:00Z,27.1690,-82.9260,97.53,1111122 
COMPS,ioos:station:USF.COMPS:C10:1,2014-11-02T02:35:00Z,27.1690,-82.9260,98.47,1111122 
COMPS,ioos:station:USF.COMPS:C10:1,2014-11-02T03:05:00Z,27.1690,-82.9260,99.15,1111122 
COMPS,ioos:station:USF.COMPS:C10:1,2014-11-02T03:35:00Z,27.1690,-82.9260,99.37,1111122 
COMPS,ioos:station:USF.COMPS:C10:1,2014-11-02T04:05:00Z,27.1690,-82.9260,99.6,1111122 
COMPS,ioos:station:USF.COMPS:C10:1,2014-11-02T04:35:00Z,27.1690,-82.9260,99.89,1111122 
COMPS,ioos:station:USF.COMPS:C10:1,2014-11-02T05:05:00Z,27.1690,-82.9260,100.06,1111122 
COMPS,ioos:station:USF.COMPS:C10:1,2014-11-02T05:35:00Z,27.1690,-82.9260,100.07,1111122 
COMPS,ioos:station:USF.COMPS:C10:1,2014-11-02T06:05:00Z,27.1690,-82.9260,100.07,1111122 
COMPS,ioos:station:USF.COMPS:C10:1,2014-11-02T06:35:00Z,27.1690,-82.9260,100.07,1111122 
COMPS,ioos:station:USF.COMPS:C10:1,2014-11-02T07:05:00Z,27.1690,-82.9260,100.09,1111122 
COMPS,ioos:station:USF.COMPS:C10:1,2014-11-02T07:35:00Z,27.1690,-82.9260,100.08,1111122 
COMPS,ioos:station:USF.COMPS:C10:1,2014-11-02T08:05:00Z,27.1690,-82.9260,100.07,1111122 
COMPS,ioos:station:USF.COMPS:C10:1,2014-11-02T08:35:00Z,27.1690,-82.9260,100.07,1111122 
COMPS,ioos:station:USF.COMPS:C10:1,2014-11-02T09:05:00Z,27.1690,-82.9260,99.93,1111122 
COMPS,ioos:station:USF.COMPS:C10:1,2014-11-02T09:35:00Z,27.1690,-82.9260,99.85,1111122 
COMPS,ioos:station:USF.COMPS:C10:1,2014-11-02T10:05:00Z,27.1690,-82.9260,100.06,1111122 
COMPS,ioos:station:USF.COMPS:C10:1,2014-11-02T10:35:00Z,27.1690,-82.9260,100.05,1111122 
COMPS,ioos:station:USF.COMPS:C10:1,2014-11-02T11:05:00Z,27.1690,-82.9260,100.07,1111122 
COMPS,ioos:station:USF.COMPS:C10:1,2014-11-02T11:35:00Z,27.1690,-82.9260,100.06,1111122 
COMPS,ioos:station:USF.COMPS:C10:1,2014-11-02T12:05:00Z,27.1690,-82.9260,100.08,1111122 
COMPS,ioos:station:USF.COMPS:C10:1,2014-11-02T12:35:00Z,27.1690,-82.9260,100.08,1111122 
COMPS,ioos:station:USF.COMPS:C10:1,2014-11-02T13:05:00Z,27.1690,-82.9260,100.06,1111122 
COMPS,ioos:station:USF.COMPS:C10:1,2014-11-02T13:35:00Z,27.1690,-82.9260,100.08,1111122 
COMPS,ioos:station:USF.COMPS:C10:1,2014-11-02T14:05:00Z,27.1690,-82.9260,100.07,1111122 
COMPS,ioos:station:USF.COMPS:C10:1,2014-11-02T14:35:00Z,27.1690,-82.9260,100.08,1111122 
COMPS,ioos:station:USF.COMPS:C10:1,2014-11-02T15:05:00Z,27.1690,-82.9260,100.07,1111122 
COMPS,ioos:station:USF.COMPS:C10:1,2014-11-02T15:35:00Z,27.1690,-82.9260,100.07,1111122 
COMPS,ioos:station:USF.COMPS:C10:1,2014-11-02T16:05:00Z,27.1690,-82.9260,99.99,1111122 
COMPS,ioos:station:USF.COMPS:C10:1,2014-11-02T16:35:00Z,27.1690,-82.9260,99.41,1111122 
COMPS,ioos:station:USF.COMPS:C10:1,2014-11-02T17:05:00Z,27.1690,-82.9260,99.6,1111122 
COMPS,ioos:station:USF.COMPS:C10:1,2014-11-02T17:35:00Z,27.1690,-82.9260,99.39,1111122 
COMPS,ioos:station:USF.COMPS:C10:1,2014-11-02T18:05:00Z,27.1690,-82.9260,100.09,1111122 
COMPS,ioos:station:USF.COMPS:C10:1,2014-11-02T18:35:00Z,27.1690,-82.9260,100.07,1111122 
COMPS,ioos:station:USF.COMPS:C10:1,2014-11-02T20:05:00Z,27.1690,-82.9260,99.94,1111122 
COMPS,ioos:station:USF.COMPS:C10:1,2014-11-02T20:35:00Z,27.1690,-82.9260,99.75,1111122 
COMPS,ioos:station:USF.COMPS:C10:1,2014-11-02T22:05:00Z,27.1690,-82.9260,96.0,1111122 
COMPS,ioos:station:USF.COMPS:C10:1,2014-11-02T22:35:00Z,27.1690,-82.9260,93.19,1111122 
COMPS,ioos:station:USF.COMPS:C10:1,2014-11-02T23:05:00Z,27.1690,-82.9260,94.85,1111122 
COMPS,ioos:station:USF.COMPS:C10:1,2014-11-02T23:35:00Z,27.1690,-82.9260,93.52,1111122 
COMPS,ioos:station:USF.COMPS:C10:1,2014-11-03T00:05:00Z,27.1690,-82.9260,96.99,1111122 
COMPS,ioos:station:USF.COMPS:C10:1,2014-11-03T00:35:00Z,27.1690,-82.9260,97.47,1111122 
COMPS,ioos:station:USF.COMPS:C10:1,2014-11-03T02:05:00Z,27.1690,-82.9260,92.9,1111122 
COMPS,ioos:station:USF.COMPS:C10:1,2014-11-03T02:35:00Z,27.1690,-82.9260,91.83,1111122 
COMPS,ioos:station:USF.COMPS:C10:1,2014-11-03T03:05:00Z,27.1690,-82.9260,98.34,1111122 
COMPS,ioos:station:USF.COMPS:C10:1,2014-11-03T03:35:00Z,27.1690,-82.9260,98.5,1111122 
COMPS,ioos:station:USF.COMPS:C10:1,2014-11-03T04:05:00Z,27.1690,-82.9260,98.01,1111122 
COMPS,ioos:station:USF.COMPS:C10:1,2014-11-03T04:35:00Z,27.1690,-82.9260,98.0,1111122 
COMPS,ioos:station:USF.COMPS:C10:1,2014-11-03T05:05:00Z,27.1690,-82.9260,95.83,1111122 
COMPS,ioos:station:USF.COMPS:C10:1,2014-11-03T05:35:00Z,27.1690,-82.9260,98.33,1111122 
COMPS,ioos:station:USF.COMPS:C10:1,2014-11-03T06:05:00Z,27.1690,-82.9260,97.77,1111122 
COMPS,ioos:station:USF.COMPS:C10:1,2014-11-03T06:35:00Z,27.1690,-82.9260,99.44,1111122 
COMPS,ioos:station:USF.COMPS:C10:1,2014-11-03T07:05:00Z,27.1690,-82.9260,99.63,1111122 
COMPS,ioos:station:USF.COMPS:C10:1,2014-11-03T07:35:00Z,27.1690,-82.9260,99.49,1111122 
COMPS,ioos:station:USF.COMPS:C10:1,2014-11-03T08:05:00Z,27.1690,-82.9260,100.01,1111122 
COMPS,ioos:station:USF.COMPS:C10:1,2014-11-03T08:35:00Z,27.1690,-82.9260,100.07,1111122 
COMPS,ioos:station:USF.COMPS:C10:1,2014-11-03T09:05:00Z,27.1690,-82.9260,99.77,1111122 
COMPS,ioos:station:USF.COMPS:C10:1,2014-11-03T09:35:00Z,27.1690,-82.9260,99.96,1111122 
COMPS,ioos:station:USF.COMPS:C10:1,2014-11-03T10:05:00Z,27.1690,-82.9260,99.77,1111122 
COMPS,ioos:station:USF.COMPS:C10:1,2014-11-03T10:35:00Z,27.1690,-82.9260,99.12,1111122 
COMPS,ioos:station:USF.COMPS:C10:1,2014-11-03T11:05:00Z,27.1690,-82.9260,97.97,1111122 
COMPS,ioos:station:USF.COMPS:C10:1,2014-11-03T11:35:00Z,27.1690,-82.9260,98.86,1111122 
COMPS,ioos:station:USF.COMPS:C10:1,2014-11-03T12:05:00Z,27.1690,-82.9260,99.89,1111122 
COMPS,ioos:station:USF.COMPS:C10:1,2014-11-03T12:35:00Z,27.1690,-82.9260,100.05,1111122 
COMPS,ioos:station:USF.COMPS:C10:1,2014-11-03T13:05:00Z,27.1690,-82.9260,100.06,1111122 
COMPS,ioos:station:USF.COMPS:C10:1,2014-11-03T13:35:00Z,27.1690,-82.9260,100.06,1111122 
COMPS,ioos:station:USF.COMPS:C10:1,2014-11-03T14:05:00Z,27.1690,-82.9260,100.08,1111122 
COMPS,ioos:station:USF.COMPS:C10:1,2014-11-03T14:35:00Z,27.1690,-82.9260,100.09,1111122 
COMPS,ioos:station:USF.COMPS:C10:1,2014-11-03T15:05:00Z,27.1690,-82.9260,100.07,1111122 
COMPS,ioos:station:USF.COMPS:C10:1,2014-11-03T15:35:00Z,27.1690,-82.9260,100.07,1111122 
COMPS,ioos:station:USF.COMPS:C10:1,2014-11-03T16:05:00Z,27.1690,-82.9260,100.11,1111122 
COMPS,ioos:station:USF.COMPS:C10:1,2014-11-03T16:35:00Z,27.1690,-82.9260,100.09,1111122 
COMPS,ioos:station:USF.COMPS:C10:1,2014-11-03T17:05:00Z,27.1690,-82.9260,100.08,1111122 
COMPS,ioos:station:USF.COMPS:C10:1,2014-11-03T17:35:00Z,27.1690,-82.9260,100.09,1111122 
COMPS,ioos:station:USF.COMPS:C10:1,2014-11-03T18:05:00Z,27.1690,-82.9260,100.07,1111122 
COMPS,ioos:station:USF.COMPS:C10:1,2014-11-03T18:35:00Z,27.1690,-82.9260,100.08,1111122 
COMPS,ioos:station:USF.COMPS:C10:1,2014-11-03T19:05:00Z,27.1690,-82.9260,100.08,1111122 
COMPS,ioos:station:USF.COMPS:C10:1,2014-11-03T19:35:00Z,27.1690,-82.9260,100.09,1111122 
COMPS,ioos:station:USF.COMPS:C10:1,2014-11-03T20:05:00Z,27.1690,-82.9260,100.09,1111122 
COMPS,ioos:station:USF.COMPS:C10:1,2014-11-03T20:35:00Z,27.1690,-82.9260,100.06,1111122 
COMPS,ioos:station:USF.COMPS:C10:1,2014-11-03T21:05:00Z,27.1690,-82.9260,100.08,1111122 
COMPS,ioos:station:USF.COMPS:C10:1,2014-11-03T21:35:00Z,27.1690,-82.9260,100.06,1111122 
COMPS,ioos:station:USF.COMPS:C10:1,2014-11-03T22:05:00Z,27.1690,-82.9260,100.05,1111122 
COMPS,ioos:station:USF.COMPS:C10:1,2014-11-03T22:35:00Z,27.1690,-82.9260,100.05,1111122 
COMPS,ioos:station:USF.COMPS:C10:1,2014-11-03T23:05:00Z,27.1690,-82.9260,100.08,1111122 
COMPS,ioos:station:USF.COMPS:C10:1,2014-11-03T23:35:00Z,27.1690,-82.9260,100.08,1111122 
COMPS,ioos:station:USF.COMPS:C10:1,2014-11-04T00:05:00Z,27.1690,-82.9260,100.08,1111122 
COMPS,ioos:station:USF.COMPS:C10:1,2014-11-04T00:35:00Z,27.1690,-82.9260,100.09,1111122 
COMPS,ioos:station:USF.COMPS:C10:1,2014-11-04T01:05:00Z,27.1690,-82.9260,100.09,1111122 
COMPS,ioos:station:USF.COMPS:C10:1,2014-11-04T01:35:00Z,27.1690,-82.9260,100.08,1111122 
COMPS,ioos:station:USF.COMPS:C10:1,2014-11-04T02:05:00Z,27.1690,-82.9260,100.08,1111122 
COMPS,ioos:station:USF.COMPS:C10:1,2014-11-04T02:35:00Z,27.1690,-82.9260,100.09,1111122 
COMPS,ioos:station:USF.COMPS:C10:1,2014-11-04T03:05:00Z,27.1690,-82.9260,100.07,1111122 
COMPS,ioos:station:USF.COMPS:C10:1,2014-11-04T03:35:00Z,27.1690,-82.9260,100.07,1111122 
COMPS,ioos:station:USF.COMPS:C10:1,2014-11-04T04:05:00Z,27.1690,-82.9260,100.07,1111122 
COMPS,ioos:station:USF.COMPS:C10:1,2014-11-04T04:35:00Z,27.1690,-82.9260,100.09,1111122 
COMPS,ioos:station:USF.COMPS:C10:1,2014-11-04T05:05:00Z,27.1690,-82.9260,100.08,1111122 
COMPS,ioos:station:USF.COMPS:C10:1,2014-11-04T05:35:00Z,27.1690,-82.9260,100.06,1111122 
COMPS,ioos:station:USF.COMPS:C10:1,2014-11-04T06:05:00Z,27.1690,-82.9260,100.08,1111122 
COMPS,ioos:station:USF.COMPS:C10:1,2014-11-04T06:35:00Z,27.1690,-82.9260,100.1,1111122 
COMPS,ioos:station:USF.COMPS:C10:1,2014-11-04T07:05:00Z,27.1690,-82.9260,100.09,1111122 
COMPS,ioos:station:USF.COMPS:C10:1,2014-11-04T07:35:00Z,27.1690,-82.9260,100.09,1111122 
COMPS,ioos:station:USF.COMPS:C10:1,2014-11-04T08:05:00Z,27.1690,-82.9260,100.08,1111122 
COMPS,ioos:station:USF.COMPS:C10:1,2014-11-04T08:35:00Z,27.1690,-82.9260,100.08,1111122 
COMPS,ioos:station:USF.COMPS:C10:1,2014-11-04T09:05:00Z,27.1690,-82.9260,100.09,1111122 
COMPS,ioos:station:USF.COMPS:C10:1,2014-11-04T09:35:00Z,27.1690,-82.9260,100.07,1111122 
COMPS,ioos:station:USF.COMPS:C10:1,2014-11-04T10:05:00Z,27.1690,-82.9260,100.08,1111122 
COMPS,ioos:station:USF.COMPS:C10:1,2014-11-04T10:35:00Z,27.1690,-82.9260,100.08,1111122 
COMPS,ioos:station:USF.COMPS:C10:1,2014-11-04T11:05:00Z,27.1690,-82.9260,100.08,1111122 
COMPS,ioos:station:USF.COMPS:C10:1,2014-11-04T11:35:00Z,27.1690,-82.9260,100.08,1111122 
COMPS,ioos:station:USF.COMPS:C10:1,2014-11-04T12:05:00Z,27.1690,-82.9260,100.09,1111122 
COMPS,ioos:station:USF.COMPS:C10:1,2014-11-04T12:35:00Z,27.1690,-82.9260,100.08,1111122 
COMPS,ioos:station:USF.COMPS:C10:1,2014-11-04T13:05:00Z,27.1690,-82.9260,100.08,1111122 
COMPS,ioos:station:USF.COMPS:C10:1,2014-11-04T13:35:00Z,27.1690,-82.9260,100.09,1111122 
COMPS,ioos:station:USF.COMPS:C10:1,2014-11-04T14:05:00Z,27.1690,-82.9260,100.08,1111122 
COMPS,ioos:station:USF.COMPS:C10:1,2014-11-04T14:35:00Z,27.1690,-82.9260,100.06,1111122 
COMPS,ioos:station:USF.COMPS:C10:1,2014-11-04T15:05:00Z,27.1690,-82.9260,100.09,1111122 
COMPS,ioos:station:USF.COMPS:C10:1,2014-11-04T15:35:00Z,27.1690,-82.9260,100.08,1111122 
COMPS,ioos:station:USF.COMPS:C10:1,2014-11-04T16:05:00Z,27.1690,-82.9260,100.1,1111122 
COMPS,ioos:station:USF.COMPS:C10:1,2014-11-04T16:35:00Z,27.1690,-82.9260,100.08,1111122 
COMPS,ioos:station:USF.COMPS:C10:1,2014-11-04T17:05:00Z,27.1690,-82.9260,100.1,1111122 
COMPS,ioos:station:USF.COMPS:C10:1,2014-11-04T17:35:00Z,27.1690,-82.9260,100.08,1111122 
COMPS,ioos:station:USF.COMPS:C10:1,2014-11-04T18:05:00Z,27.1690,-82.9260,100.08,1111122 
COMPS,ioos:station:USF.COMPS:C10:1,2014-11-04T18:35:00Z,27.1690,-82.9260,100.07,1111122 
COMPS,ioos:station:USF.COMPS:C10:1,2014-11-04T19:05:00Z,27.1690,-82.9260,100.05,1111122 
COMPS,ioos:station:USF.COMPS:C10:1,2014-11-04T19:35:00Z,27.1690,-82.9260,100.04,1111122 
COMPS,ioos:station:USF.COMPS:C10:1,2014-11-04T20:05:00Z,27.1690,-82.9260,100.07,1111122 
COMPS,ioos:station:USF.COMPS:C10:1,2014-11-04T20:35:00Z,27.1690,-82.9260,100.06,1111122 
COMPS,ioos:station:USF.COMPS:C10:1,2014-11-04T21:05:00Z,27.1690,-82.9260,100.08,1111122 
COMPS,ioos:station:USF.COMPS:C10:1,2014-11-04T21:35:00Z,27.1690,-82.9260,100.06,1111122 
COMPS,ioos:station:USF.COMPS:C10:1,2014-11-04T22:05:00Z,27.1690,-82.9260,100.07,1111122 
COMPS,ioos:station:USF.COMPS:C10:1,2014-11-04T22:35:00Z,27.1690,-82.9260,100.08,1111122 
COMPS,ioos:station:USF.COMPS:C10:1,2014-11-04T23:05:00Z,27.1690,-82.9260,100.05,1111122 
COMPS,ioos:station:USF.COMPS:C10:1,2014-11-04T23:35:00Z,27.1690,-82.9260,100.07,1111122 
COMPS,ioos:station:USF.COMPS:C10:1,2014-11-05T00:05:00Z,27.1690,-82.9260,100.06,1111122 
COMPS,ioos:station:USF.COMPS:C10:1,2014-11-05T00:35:00Z,27.1690,-82.9260,100.07,1111122 
COMPS,ioos:station:USF.COMPS:C10:1,2014-11-05T01:05:00Z,27.1690,-82.9260,100.06,1111122 
COMPS,ioos:station:USF.COMPS:C10:1,2014-11-05T01:35:00Z,27.1690,-82.9260,100.06,1111122 
COMPS,ioos:station:USF.COMPS:C10:1,2014-11-05T02:05:00Z,27.1690,-82.9260,100.06,1111122 
COMPS,ioos:station:USF.COMPS:C10:1,2014-11-05T02:35:00Z,27.1690,-82.9260,100.05,1111122 
COMPS,ioos:station:USF.COMPS:C10:1,2014-11-05T03:05:00Z,27.1690,-82.9260,100.06,1111122 
COMPS,ioos:station:USF.COMPS:C10:1,2014-11-05T03:35:00Z,27.1690,-82.9260,100.06,1111122 
COMPS,ioos:station:USF.COMPS:C10:1,2014-11-05T04:05:00Z,27.1690,-82.9260,100.05,1111122 
COMPS,ioos:station:USF.COMPS:C10:1,2014-11-05T04:35:00Z,27.1690,-82.9260,100.08,1111122 
COMPS,ioos:station:USF.COMPS:C10:1,2014-11-05T05:05:00Z,27.1690,-82.9260,100.08,1111122 
COMPS,ioos:station:USF.COMPS:C10:1,2014-11-05T05:35:00Z,27.1690,-82.9260,100.08,1111122 
COMPS,ioos:station:USF.COMPS:C10:1,2014-11-05T06:05:00Z,27.1690,-82.9260,100.08,1111122 
COMPS,ioos:station:USF.COMPS:C10:1,2014-11-05T06:35:00Z,27.1690,-82.9260,100.09,1111122 
COMPS,ioos:station:USF.COMPS:C10:1,2014-11-05T07:05:00Z,27.1690,-82.9260,100.09,1111122 
COMPS,ioos:station:USF.COMPS:C10:1,2014-11-05T07:35:00Z,27.1690,-82.9260,100.06,1111122 
COMPS,ioos:station:USF.COMPS:C10:1,2014-11-05T08:05:00Z,27.1690,-82.9260,100.09,1111122 
COMPS,ioos:station:USF.COMPS:C10:1,2014-11-05T08:35:00Z,27.1690,-82.9260,100.08,1111122 
COMPS,ioos:station:USF.COMPS:C10:1,2014-11-05T09:05:00Z,27.1690,-82.9260,100.08,1111122 
COMPS,ioos:station:USF.COMPS:C10:1,2014-11-05T09:35:00Z,27.1690,-82.9260,100.08,1111122 
COMPS,ioos:station:USF.COMPS:C10:1,2014-11-05T10:05:00Z,27.1690,-82.9260,100.08,1111122 
COMPS,ioos:station:USF.COMPS:C10:1,2014-11-05T10:35:00Z,27.1690,-82.9260,100.08,1111122 
COMPS,ioos:station:USF.COMPS:C10:1,2014-11-05T11:05:00Z,27.1690,-82.9260,100.1,1111122 
COMPS,ioos:station:USF.COMPS:C10:1,2014-11-05T11:35:00Z,27.1690,-82.9260,100.07,1111122 
COMPS,ioos:station:USF.COMPS:C10:1,2014-11-05T12:05:00Z,27.1690,-82.9260,100.08,1111122 
COMPS,ioos:station:USF.COMPS:C10:1,2014-11-05T12:35:00Z,27.1690,-82.9260,100.08,1111122 
COMPS,ioos:station:USF.COMPS:C10:1,2014-11-05T13:05:00Z,27.1690,-82.9260,100.08,1111122 
COMPS,ioos:station:USF.COMPS:C10:1,2014-11-05T13:35:00Z,27.1690,-82.9260,100.09,1111122 
COMPS,ioos:station:USF.COMPS:C10:1,2014-11-05T14:05:00Z,27.1690,-82.9260,100.07,1111122 
COMPS,ioos:station:USF.COMPS:C10:1,2014-11-05T14:35:00Z,27.1690,-82.9260,100.07,1111122 
COMPS,ioos:station:USF.COMPS:C10:1,2014-11-05T15:05:00Z,27.1690,-82.9260,100.08,1111122 
COMPS,ioos:station:USF.COMPS:C10:1,2014-11-05T15:35:00Z,27.1690,-82.9260,100.06,1111122 
COMPS,ioos:station:USF.COMPS:C10:1,2014-11-05T16:05:00Z,27.1690,-82.9260,100.07,1111122 
COMPS,ioos:station:USF.COMPS:C10:1,2014-11-05T16:35:00Z,27.1690,-82.9260,100.08,1111122 
COMPS,ioos:station:USF.COMPS:C10:1,2014-11-05T17:05:00Z,27.1690,-82.9260,100.07,1111122 
COMPS,ioos:station:USF.COMPS:C10:1,2014-11-05T17:35:00Z,27.1690,-82.9260,100.07,1111122 
COMPS,ioos:station:USF.COMPS:C10:1,2014-11-05T18:05:00Z,27.1690,-82.9260,100.08,1111122 
COMPS,ioos:station:USF.COMPS:C10:1,2014-11-05T18:35:00Z,27.1690,-82.9260,100.09,1111122 
COMPS,ioos:station:USF.COMPS:C10:1,2014-11-05T19:05:00Z,27.1690,-82.9260,100.08,1111122 
COMPS,ioos:station:USF.COMPS:C10:1,2014-11-05T19:35:00Z,27.1690,-82.9260,100.07,1111122 
COMPS,ioos:station:USF.COMPS:C10:1,2014-11-05T20:05:00Z,27.1690,-82.9260,100.08,1111122 
COMPS,ioos:station:USF.COMPS:C10:1,2014-11-05T20:35:00Z,27.1690,-82.9260,100.1,1111122 
COMPS,ioos:station:USF.COMPS:C10:1,2014-11-05T21:05:00Z,27.1690,-82.9260,100.1,1111122 
COMPS,ioos:station:USF.COMPS:C10:1,2014-11-05T21:35:00Z,27.1690,-82.9260,100.07,1111122 
COMPS,ioos:station:USF.COMPS:C10:1,2014-11-05T22:05:00Z,27.1690,-82.9260,100.07,1111122 
COMPS,ioos:station:USF.COMPS:C10:1,2014-11-05T22:35:00Z,27.1690,-82.9260,100.08,1111122 
COMPS,ioos:station:USF.COMPS:C10:1,2014-11-05T23:05:00Z,27.1690,-82.9260,100.08,1111122 
COMPS,ioos:station:USF.COMPS:C10:1,2014-11-05T23:35:00Z,27.1690,-82.9260,100.05,1111122 
COMPS,ioos:station:USF.COMPS:C10:1,2014-11-06T00:05:00Z,27.1690,-82.9260,100.06,1111122 
COMPS,ioos:station:USF.COMPS:C10:1,2014-11-06T00:35:00Z,27.1690,-82.9260,100.09,1111122 
COMPS,ioos:station:USF.COMPS:C10:1,2014-11-06T01:05:00Z,27.1690,-82.9260,100.06,1111122 
COMPS,ioos:station:USF.COMPS:C10:1,2014-11-06T01:35:00Z,27.1690,-82.9260,100.06,1111122 
COMPS,ioos:station:USF.COMPS:C10:1,2014-11-06T02:05:00Z,27.1690,-82.9260,100.08,1111122 
COMPS,ioos:station:USF.COMPS:C10:1,2014-11-06T02:35:00Z,27.1690,-82.9260,100.06,1111122 
COMPS,ioos:station:USF.COMPS:C10:1,2014-11-06T03:05:00Z,27.1690,-82.9260,100.07,1111122 
COMPS,ioos:station:USF.COMPS:C10:1,2014-11-06T03:35:00Z,27.1690,-82.9260,100.07,1111122 
COMPS,ioos:station:USF.COMPS:C10:1,2014-11-06T04:05:00Z,27.1690,-82.9260,100.07,1111122 
COMPS,ioos:station:USF.COMPS:C10:1,2014-11-06T04:35:00Z,27.1690,-82.9260,100.08,1111122 
COMPS,ioos:station:USF.COMPS:C10:1,2014-11-06T05:05:00Z,27.1690,-82.9260,100.06,1111122 
COMPS,ioos:station:USF.COMPS:C10:1,2014-11-06T05:35:00Z,27.1690,-82.9260,100.06,1111122 
COMPS,ioos:station:USF.COMPS:C10:1,2014-11-06T06:05:00Z,27.1690,-82.9260,100.06,1111122 
COMPS,ioos:station:USF.COMPS:C10:1,2014-11-06T06:35:00Z,27.1690,-82.9260,100.06,1111122 
COMPS,ioos:station:USF.COMPS:C10:1,2014-11-06T07:05:00Z,27.1690,-82.9260,100.06,1111122 
COMPS,ioos:station:USF.COMPS:C10:1,2014-11-06T07:35:00Z,27.1690,-82.9260,100.06,1111122 
COMPS,ioos:station:USF.COMPS:C10:1,2014-11-06T08:05:00Z,27.1690,-82.9260,100.07,1111122 
COMPS,ioos:station:USF.COMPS:C10:1,2014-11-06T08:35:00Z,27.1690,-82.9260,100.06,1111122 
COMPS,ioos:station:USF.COMPS:C10:1,2014-11-06T09:05:00Z,27.1690,-82.9260,100.08,1111122 
COMPS,ioos:station:USF.COMPS:C10:1,2014-11-06T09:35:00Z,27.1690,-82.9260,100.07,1111122 
COMPS,ioos:station:USF.COMPS:C10:1,2014-11-06T10:05:00Z,27.1690,-82.9260,100.08,1111122 
COMPS,ioos:station:USF.COMPS:C10:1,2014-11-06T10:35:00Z,27.1690,-82.9260,100.09,1111122 
COMPS,ioos:station:USF.COMPS:C10:1,2014-11-06T11:05:00Z,27.1690,-82.9260,100.09,1111122 
COMPS,ioos:station:USF.COMPS:C10:1,2014-11-06T11:35:00Z,27.1690,-82.9260,100.08,1111122 
COMPS,ioos:station:USF.COMPS:C10:1,2014-11-06T12:05:00Z,27.1690,-82.9260,100.09,1111122 
COMPS,ioos:station:USF.COMPS:C10:1,2014-11-06T12:35:00Z,27.1690,-82.9260,100.08,1111122 
COMPS,ioos:station:USF.COMPS:C10:1,2014-11-06T13:05:00Z,27.1690,-82.9260,100.09,1111122 
COMPS,ioos:station:USF.COMPS:C10:1,2014-11-06T13:35:00Z,27.1690,-82.9260,100.06,1111122 
COMPS,ioos:station:USF.COMPS:C10:1,2014-11-06T14:05:00Z,27.1690,-82.9260,100.06,1111122 
COMPS,ioos:station:USF.COMPS:C10:1,2014-11-06T14:35:00Z,27.1690,-82.9260,100.07,1111122 
COMPS,ioos:station:USF.COMPS:C10:1,2014-11-06T15:05:00Z,27.1690,-82.9260,100.07,1111122 
COMPS,ioos:station:USF.COMPS:C10:1,2014-11-06T15:35:00Z,27.1690,-82.9260,100.08,1111122 
COMPS,ioos:station:USF.COMPS:C10:1,2014-11-06T16:05:00Z,27.1690,-82.9260,100.06,1111122 
COMPS,ioos:station:USF.COMPS:C10:1,2014-11-06T16:35:00Z,27.1690,-82.9260,100.08,1111122 
COMPS,ioos:station:USF.COMPS:C10:1,2014-11-06T17:05:00Z,27.1690,-82.9260,100.09,1111122 
COMPS,ioos:station:USF.COMPS:C10:1,2014-11-06T17:35:00Z,27.1690,-82.9260,100.08,1111122 
COMPS,ioos:station:USF.COMPS:C10:1,2014-11-06T18:05:00Z,27.1690,-82.9260,100.08,1111122 
COMPS,ioos:station:USF.COMPS:C10:1,2014-11-06T18:35:00Z,27.1690,-82.9260,100.09,1111122 
COMPS,ioos:station:USF.COMPS:C10:1,2014-11-06T19:05:00Z,27.1690,-82.9260,100.1,1111122 
COMPS,ioos:station:USF.COMPS:C10:1,2014-11-06T19:35:00Z,27.1690,-82.9260,100.08,1111122 
COMPS,ioos:station:USF.COMPS:C10:1,2014-11-06T20:05:00Z,27.1690,-82.9260,100.05,1111122 
COMPS,ioos:station:USF.COMPS:C10:1,2014-11-06T20:35:00Z,27.1690,-82.9260,100.07,1111122 
COMPS,ioos:station:USF.COMPS:C10:1,2014-11-06T21:05:00Z,27.1690,-82.9260,100.07,1111122 